User: anonymous   Login
Location: Hancock Field Station
(44.9202°N, 120.4259°W)
Time: 16:16:11
(UTC-07:00)
Language:

Nadezhda 4 Rocket - Orbit

View from above orbital plane
View from above orbital plane
View from above satellite
View from above satellite

Ground track
Ground track

The orbit data is extracted from the following two-line orbital elements,

1 23180U 94041B   16237.20496025  .00000047  00000-0  31786-4 0  9999
2 23180  82.9486 152.0322 0028631 340.2120 175.2992 13.77927447112000
Epoch (UTC): 24 August 2016 04:55:08
Eccentricity: 0.0028631
inclination: 82.9486°
perigee height: 950 km
apogee height: 992 km
right ascension of ascending node: 152.0322°
argument of perigee: 340.2120°
revolutions per day: 13.77927447
mean anomaly at epoch: 175.2992°
orbit number at epoch: 11200

The dashed part of the orbit path shows where the satellite is in the earth's shadow,  

DLR